Regional Weather Roundup
Issued by NWS

Home | Current Version | Previous Version | Text Only | Print | Product List | Glossary On
Versions: 1 2 3 4 5 6 7 8 9 10 11 12 13 14 15 16 17 18 19 20 21 22 23 24 25 26 27 28 29 30 31 32 33 34 35 36 37 38 39 40 41 42 43 44 45 46 47 48 49 50
000
ASUS45 KBOI 032010
RWRID

IDAHO REGIONAL WEATHER ROUNDUP
NATIONAL WEATHER SERVICE BOISE ID
200 PM MDT FRI JUL 03 2015

NOTE: "FAIR" INDICATES FEW OR NO CLOUDS BELOW 12000 FEET
WITH NO SIGNIFICANT WEATHER AND/OR OBSTRUCTIONS TO VISIBILITY

IDZ012-014-032100-
SOUTHWEST IDAHO


CITY           SKY/WX    TMP DP  RH WIND       PRES   REMARKS
BOISE          SUNNY     98  41  14 NW12G17   29.91F HX  93
CALDWELL       SUNNY     97  43  15 NW7         N/A  HX  92
MOUNTAIN HOME  SUNNY    100  37  11 NW15G21   29.90F HX  95
$$

IDZ016-017-032100-
SOUTHCENTRAL IDAHO


CITY           SKY/WX    TMP DP  RH WIND       PRES   REMARKS
BURLEY         SUNNY     91  47  21 W9G17     29.98F
JEROME         SUNNY     93  48  21 W8        29.99F
TWIN FALLS     SUNNY     97  41  14 NW10      29.97F HX  92
$$

IDZ019>023-032100-
SOUTHEAST IDAHO


CITY           SKY/WX    TMP DP  RH WIND       PRES   REMARKS
IDAHO FALLS    MOSUNNY   91  48  22 S13       30.02F
POCATELLO      SUNNY     94  46  19 W12       30.01F HX  90
REXBURG        MOSUNNY   87  51  28 SW12      30.02F
$$

IDZ006-010-011-018-031-032-032100-
CENTRAL IDAHO MOUNTAINS


CITY           SKY/WX    TMP DP  RH WIND       PRES   REMARKS
MCCALL         SUNNY     86  39  19 MISG      30.06F
HAILEY         MOSUNNY   91  45  19 NW12G24   30.06F
STANLEY          N/A     86  41  20 NW14G23   30.16F
SALMON         SUNNY     88  46  23 CALM      29.94F
CHALLIS        MOSUNNY   93  38  14 E6        30.00F
$$

IDZ002-004-006-007-026-032100-
NORTHERN IDAHO


CITY           SKY/WX    TMP DP  RH WIND       PRES   REMARKS
LEWISTON       SUNNY     97  47  18 CALM      29.84F HX  93
LOWELL           N/A     98  50  19 CALM      29.84F HX  95
COEUR D`ALENE  SUNNY     93  50  22 W3        29.88F HX  90
MULLAN PASS    SUNNY     77  37  23 VRB5      30.16F
$$



USA.gov is the U.S. government's official web portal to all federal, state and local government web resources and services.